• In Russia
  • List of Countries
  • For 7 days
  • Water Temperature
  • Satellite Maps
  • Weather Map
  • Weather Widgets
  • user-avatar
    Login

    Hourly Weather Sherpur

    Today, 19 May, Sunday

    Time Temperature Precipitation Wind Pressure Humidity
    00:00 +16°C° 0 mm 2 mps 610 mmHg 33%
    01:00 +16°C° 0 mm 1 mps 610 mmHg 34%
    02:00 +15°C° 0 mm 1 mps 609 mmHg 36%
    03:00 +15°C° 0 mm 1 mps 609 mmHg 38%
    04:00 +14°C° 0 mm 1 mps 609 mmHg 40%
    05:00 +14°C° 0 mm 1 mps 608 mmHg 45%
    06:00 +15°C° 0 mm 1 mps 609 mmHg 41%
    07:00 +16°C° 0 mm 1 mps 610 mmHg 37%
    08:00 +18°C° 0 mm 1 mps 610 mmHg 33%
    09:00 +19°C° 0.1 mm 1 mps 610 mmHg 32%
    10:00 +19°C° 0.1 mm 2 mps 611 mmHg 30%
    11:00 +20°C° 0.1 mm 2 mps 611 mmHg 28%
    12:00 +21°C° 0.1 mm 2 mps 611 mmHg 27%
    13:00 +23°C° 0.1 mm 2 mps 611 mmHg 27%
    14:00 +24°C° 0.1 mm 3 mps 611 mmHg 26%
    15:00 +24°C° 0.2 mm 3 mps 611 mmHg 27%
    16:00 +22°C° 0.2 mm 3 mps 611 mmHg 28%
    17:00 +22°C° 0.2 mm 3 mps 611 mmHg 29%
    18:00 +21°C° 0.1 mm 3 mps 611 mmHg 31%
    19:00 +20°C° 0.1 mm 3 mps 611 mmHg 32%
    20:00 +19°C° 0.1 mm 3 mps 611 mmHg 34%
    21:00 +19°C° 0 mm 2 mps 611 mmHg 36%
    22:00 +18°C° 0 mm 2 mps 611 mmHg 38%
    23:00 +18°C° 0 mm 1 mps 611 mmHg 40%

    Tomorrow, 20 May, Monday

    Time Temperature Precipitation Wind Pressure Humidity
    00:00 +18°C° 0 mm 1 mps 611 mmHg 42%
    01:00 +16°C° 0 mm 1 mps 611 mmHg 44%
    02:00 +16°C° 0 mm 1 mps 611 mmHg 46%
    03:00 +15°C° 0 mm 1 mps 610 mmHg 47%
    04:00 +14°C° 0 mm 1 mps 610 mmHg 49%
    05:00 +14°C° 0 mm 1 mps 610 mmHg 51%
    06:00 +15°C° 0 mm 1 mps 610 mmHg 46%
    07:00 +16°C° 0 mm 1 mps 611 mmHg 42%
    08:00 +18°C° 0 mm 1 mps 612 mmHg 37%
    09:00 +20°C° 0 mm 1 mps 612 mmHg 34%
    10:00 +21°C° 0 mm 1 mps 612 mmHg 31%
    11:00 +22°C° 0 mm 1 mps 613 mmHg 27%
    12:00 +23°C° 0 mm 2 mps 613 mmHg 26%
    13:00 +24°C° 0 mm 2 mps 613 mmHg 24%
    14:00 +25°C° 0 mm 2 mps 613 mmHg 23%
    15:00 +25°C° 0.1 mm 3 mps 613 mmHg 22%
    16:00 +25°C° 0.1 mm 3 mps 612 mmHg 22%
    17:00 +25°C° 0.1 mm 3 mps 612 mmHg 21%
    18:00 +24°C° 0.1 mm 2 mps 612 mmHg 24%
    19:00 +23°C° 0.1 mm 2 mps 612 mmHg 27%
    20:00 +22°C° 0.1 mm 1 mps 611 mmHg 30%
    21:00 +21°C° 0 mm 1 mps 612 mmHg 31%
    22:00 +20°C° 0 mm 1 mps 612 mmHg 32%
    23:00 +20°C° 0 mm 1 mps 612 mmHg 33%

    Day after tomorrow, 21 May, Tuesday

    Time Temperature Precipitation Wind Pressure Humidity
    00:00 +19°C° 0 mm 1 mps 611 mmHg 35%
    01:00 +18°C° 0 mm 1 mps 611 mmHg 38%
    02:00 +18°C° 0 mm 1 mps 610 mmHg 40%
    03:00 +16°C° 0 mm 1 mps 610 mmHg 41%
    04:00 +16°C° 0 mm 1 mps 610 mmHg 42%
    05:00 +15°C° 0 mm 1 mps 609 mmHg 43%
    06:00 +16°C° 0 mm 1 mps 610 mmHg 39%
    07:00 +19°C° 0 mm 1 mps 611 mmHg 34%
    08:00 +20°C° 0 mm 1 mps 612 mmHg 30%
    09:00 +22°C° 0 mm 1 mps 612 mmHg 28%
    10:00 +23°C° 0 mm 1 mps 612 mmHg 26%
    11:00 +24°C° 0 mm 1 mps 613 mmHg 24%
    12:00 +25°C° 0 mm 2 mps 612 mmHg 23%
    13:00 +26°C° 0 mm 2 mps 612 mmHg 22%
    14:00 +27°C° 0 mm 2 mps 612 mmHg 20%
    15:00 +27°C° 0.1 mm 2 mps 612 mmHg 20%
    16:00 +27°C° 0.1 mm 3 mps 612 mmHg 19%
    17:00 +27°C° 0.1 mm 3 mps 612 mmHg 19%
    18:00 +25°C° 0 mm 3 mps 612 mmHg 23%
    19:00 +24°C° 0 mm 3 mps 612 mmHg 26%
    20:00 +22°C° 0 mm 4 mps 612 mmHg 30%
    21:00 +21°C° 0 mm 3 mps 612 mmHg 33%
    22:00 +21°C° 0 mm 2 mps 612 mmHg 37%
    23:00 +20°C° 0 mm 2 mps 612 mmHg 40%

    22 May, Wednesday

    Time Temperature Precipitation Wind Pressure Humidity
    00:00 +20°C° 0 mm 1 mps 611 mmHg 41%
    01:00 +20°C° 0 mm 1 mps 611 mmHg 41%
    02:00 +20°C° 0 mm 1 mps 611 mmHg 42%
    03:00 +20°C° 0 mm 1 mps 611 mmHg 44%
    04:00 +19°C° 0 mm 1 mps 610 mmHg 45%
    05:00 +18°C° 0 mm 2 mps 610 mmHg 47%
    06:00 +18°C° 0 mm 2 mps 610 mmHg 44%
    07:00 +19°C° 0 mm 2 mps 611 mmHg 41%
    08:00 +20°C° 0 mm 1 mps 611 mmHg 38%
    09:00 +20°C° 0 mm 2 mps 611 mmHg 36%
    10:00 +21°C° 0 mm 2 mps 612 mmHg 33%
    11:00 +22°C° 0 mm 3 mps 612 mmHg 30%
    12:00 +24°C° 0 mm 3 mps 612 mmHg 30%
    13:00 +24°C° 0 mm 3 mps 612 mmHg 29%
    14:00 +23°C° 0 mm 4 mps 611 mmHg 29%
    15:00 +23°C° 0 mm 4 mps 611 mmHg 30%
    16:00 +23°C° 0 mm 4 mps 611 mmHg 31%
    17:00 +22°C° 0 mm 4 mps 610 mmHg 32%
    18:00 +21°C° 0.2 mm 4 mps 610 mmHg 35%
    19:00 +20°C° 0.2 mm 3 mps 610 mmHg 38%
    20:00 +20°C° 0.2 mm 3 mps 611 mmHg 41%
    21:00 +19°C° 0.1 mm 2 mps 610 mmHg 43%
    22:00 +18°C° 0.1 mm 2 mps 610 mmHg 44%
    23:00 +18°C° 0.1 mm 2 mps 610 mmHg 46%

    23 May, Thursday

    Time Temperature Precipitation Wind Pressure Humidity
    00:00 +18°C° 0.2 mm 1 mps 610 mmHg 48%
    01:00 +18°C° 0.2 mm 1 mps 609 mmHg 51%
    02:00 +16°C° 0.2 mm 0 mps 609 mmHg 53%
    03:00 +16°C° 0.2 mm 1 mps 609 mmHg 54%
    04:00 +16°C° 0.2 mm 1 mps 608 mmHg 55%
    05:00 +16°C° 0.2 mm 1 mps 608 mmHg 56%
    06:00 +16°C° 0.1 mm 1 mps 609 mmHg 54%
    07:00 +18°C° 0.1 mm 1 mps 609 mmHg 51%
    08:00 +18°C° 0.1 mm 1 mps 609 mmHg 48%
    09:00 +19°C° 0 mm 1 mps 610 mmHg 45%
    10:00 +20°C° 0 mm 1 mps 610 mmHg 41%
    11:00 +21°C° 0 mm 1 mps 610 mmHg 37%
    12:00 +22°C° 0 mm 1 mps 610 mmHg 36%
    13:00 +23°C° 0 mm 1 mps 610 mmHg 34%
    14:00 +23°C° 0 mm 1 mps 610 mmHg 32%
    15:00 +23°C° 0.2 mm 1 mps 610 mmHg 33%
    16:00 +23°C° 0.2 mm 1 mps 610 mmHg 33%
    17:00 +23°C° 0.2 mm 1 mps 610 mmHg 33%
    18:00 +23°C° 0.2 mm 2 mps 610 mmHg 35%
    19:00 +21°C° 0.2 mm 2 mps 610 mmHg 37%
    20:00 +20°C° 0.2 mm 2 mps 611 mmHg 39%
    21:00 +20°C° 0.1 mm 2 mps 611 mmHg 41%
    22:00 +19°C° 0.1 mm 2 mps 611 mmHg 44%
    23:00 +20°C° 0.1 mm 1 mps 610 mmHg 46%

    24 May, Friday

    Time Temperature Precipitation Wind Pressure Humidity
    00:00 +19°C° 0.1 mm 1 mps 610 mmHg 48%
    01:00 +19°C° 0.1 mm 1 mps 609 mmHg 51%
    02:00 +18°C° 0.1 mm 1 mps 609 mmHg 53%
    03:00 +18°C° 0 mm 1 mps 609 mmHg 56%
    04:00 +16°C° 0 mm 1 mps 609 mmHg 58%
    05:00 +15°C° 0 mm 0 mps 608 mmHg 60%
    06:00 +16°C° 0.1 mm 1 mps 609 mmHg 55%
    07:00 +18°C° 0.1 mm 1 mps 609 mmHg 50%
    08:00 +19°C° 0.1 mm 1 mps 610 mmHg 45%
    09:00 +20°C° 0 mm 1 mps 610 mmHg 42%
    10:00 +21°C° 0 mm 1 mps 610 mmHg 38%
    11:00 +22°C° 0 mm 1 mps 611 mmHg 35%
    12:00 +23°C° 0.1 mm 1 mps 611 mmHg 33%
    13:00 +24°C° 0.1 mm 1 mps 611 mmHg 31%
    14:00 +25°C° 0.1 mm 1 mps 610 mmHg 30%
    15:00 +24°C° 0.4 mm 2 mps 610 mmHg 31%
    16:00 +24°C° 0.4 mm 2 mps 610 mmHg 32%
    17:00 +24°C° 0.4 mm 3 mps 610 mmHg 33%
    18:00 +23°C° 0.8 mm 2 mps 610 mmHg 37%
    19:00 +21°C° 0.8 mm 2 mps 610 mmHg 40%
    20:00 +19°C° 0.8 mm 2 mps 610 mmHg 44%
    21:00 +20°C° 0.1 mm 1 mps 610 mmHg 45%
    22:00 +20°C° 0.1 mm 1 mps 610 mmHg 45%
    23:00 +20°C° 0.1 mm 1 mps 611 mmHg 45%
    Show more